seed: p2v3s54

Total games: 77


  • Filter by # of Players
  • Filter by Score
  • Filter by Variant



ID # of Players Score Variant Date & Time Players
106048 2 30 Rainbow (6 Suits) 2020-04-02 — 19:52:12 UTC Sadret, Sharklah
138710 2 30 Rainbow (6 Suits) 2020-04-26 — 02:23:50 UTC bfichera, brami
165171 2 30 Rainbow (6 Suits) 2020-05-14 — 03:42:45 UTC jalmenda, zmill415
209499 2 30 Rainbow (6 Suits) 2020-06-17 — 09:45:42 UTC metta, robense
275821 2 30 Rainbow (6 Suits) 2020-08-20 — 18:08:41 UTC higamel, higamy
405414 2 30 Rainbow (6 Suits) 2021-01-16 — 20:22:53 UTC FrozenAnimal, Macsgirl
420285 2 30 Rainbow (6 Suits) 2021-01-30 — 23:23:12 UTC Cold, Shad_Crow
444400 2 30 Rainbow (6 Suits) 2021-02-21 — 15:45:18 UTC ArcheNoah, jule_2000
446925 2 30 Rainbow (6 Suits) 2021-02-23 — 20:39:59 UTC boobailey808, jasmine
457334 2 30 Rainbow (6 Suits) 2021-03-05 — 05:44:22 UTC Lampz, Mage
509508 2 30 Rainbow (6 Suits) 2021-04-22 — 19:33:12 UTC Frozen_Animal, Macs_girl
585453 2 30 Rainbow (6 Suits) 2021-07-09 — 17:02:05 UTC Frozen_Animal_, Macs_girl_
591579 2 30 Rainbow (6 Suits) 2021-07-18 — 12:17:48 UTC JonathanHicks, sole.garcia
78858 2 29 Rainbow (6 Suits) 2020-02-11 — 02:56:30 UTC jwngr, wyrdy
140168 2 29 Rainbow (6 Suits) 2020-04-26 — 23:04:45 UTC khushi, neerav
148566 2 29 Rainbow (6 Suits) 2020-05-02 — 19:22:03 UTC Joost, Thomas1234
209470 2 29 Rainbow (6 Suits) 2020-06-17 — 07:37:00 UTC Aluap, antitelharsic
267282 2 29 Rainbow (6 Suits) 2020-08-10 — 16:41:58 UTC Lee3, RickSanchez
276851 2 29 Rainbow (6 Suits) 2020-08-21 — 23:31:38 UTC iamokatchess, Isa
306583 2 29 Rainbow (6 Suits) 2020-09-26 — 03:15:07 UTC johnboy81918, Stephzheng
316568 2 29 Rainbow (6 Suits) 2020-10-09 — 17:23:41 UTC clspencer, sjforion
405011 2 29 Rainbow (6 Suits) 2021-01-16 — 07:13:12 UTC socerman, tacobot5000
428429 2 29 Rainbow (6 Suits) 2021-02-07 — 01:59:03 UTC hu.man01, Stradguy1
453173 2 29 Rainbow (6 Suits) 2021-03-01 — 17:19:56 UTC lcflorencelo, slyrk
542402 2 29 Rainbow (6 Suits) 2021-05-28 — 02:23:18 UTC jean_franc_bleu, loohye
582420 2 29 Rainbow (6 Suits) 2021-07-05 — 18:54:20 UTC explorerus., raphaeleon
593472 2 29 Rainbow (6 Suits) 2021-07-21 — 18:43:49 UTC ajsehifowha, dunes1
595107 2 29 Rainbow (6 Suits) 2021-07-24 — 05:51:35 UTC Laure, Shazaaaaam
627883 2 29 Rainbow (6 Suits) 2021-09-17 — 00:36:39 UTC Cornflake62, kuib
641654 2 29 Rainbow (6 Suits) 2021-10-11 — 17:18:15 UTC ichaelm, ijs
121100 2 28 Rainbow (6 Suits) 2020-04-14 — 01:08:24 UTC dewey, liwei
161491 2 28 Rainbow (6 Suits) 2020-05-11 — 03:40:53 UTC Hawlucha, mperera
352339 2 28 Rainbow (6 Suits) 2020-11-24 — 05:29:48 UTC heftych1, kimgannon
567463 2 28 Rainbow (6 Suits) 2021-06-19 — 07:07:01 UTC rainboy, rickytaco
47053 2 27 Rainbow (6 Suits) 2019-07-20 — 04:01:20 UTC em, J3enjamin
133602 2 27 Rainbow (6 Suits) 2020-04-23 — 00:07:32 UTC ctetu, math444
189347 2 27 Rainbow (6 Suits) 2020-05-31 — 19:29:56 UTC Guamo, larki
192293 2 27 Rainbow (6 Suits) 2020-06-03 — 03:53:42 UTC Crivens_Temp, eliyahu
223948 2 27 Rainbow (6 Suits) 2020-06-30 — 02:40:42 UTC fivefives, wyrdy2
334883 2 27 Rainbow (6 Suits) 2020-11-04 — 01:00:48 UTC gsherm, timt
356457 2 27 Rainbow (6 Suits) 2020-11-29 — 03:45:18 UTC madampoops, mrpoopybutthole
456135 2 27 Rainbow (6 Suits) 2021-03-04 — 05:52:35 UTC mmsieth, taylos3
477005 2 27 Rainbow (6 Suits) 2021-03-22 — 18:37:22 UTC Footscrayzy, Noble
5443 2 0 Rainbow (6 Suits) 2018-04-21 — 20:21:31 UTC Libster, Zamiel
5579 2 0 Rainbow (6 Suits) 2018-04-24 — 18:47:43 UTC florrat2, postmans
59855 2 0 Rainbow (6 Suits) 2019-10-20 — 14:43:28 UTC hbjornoy, heddav
64668 2 0 Rainbow (6 Suits) 2019-11-15 — 09:49:40 UTC Dr_Kakashi, RaKXeR
96056 2 0 Rainbow (6 Suits) 2020-03-24 — 15:50:34 UTC anto.mazzo, mauro
98259 2 0 Rainbow (6 Suits) 2020-03-27 — 02:36:12 UTC efemural, jean
135969 2 0 Rainbow (6 Suits) 2020-04-24 — 18:59:00 UTC bornagy, nandu13
151741 2 0 Rainbow (6 Suits) 2020-05-04 — 12:27:45 UTC Dilshaad, Dimithi
153902 2 0 Rainbow (6 Suits) 2020-05-06 — 02:51:32 UTC WadeYao, YYF
164778 2 0 Rainbow (6 Suits) 2020-05-13 — 23:16:08 UTC gautam, paperairplane69
183862 2 0 Rainbow (6 Suits) 2020-05-27 — 19:26:03 UTC Allemoor, Kilkame
186570 2 0 Rainbow (6 Suits) 2020-05-29 — 20:25:45 UTC mglanzer, rfrank27
192300 2 0 Rainbow (6 Suits) 2020-06-03 — 03:55:49 UTC buxtehude11, yeeclaw
212778 2 0 Rainbow (6 Suits) 2020-06-20 — 06:25:19 UTC RespectCaviar, schemetrical
215548 2 0 Rainbow (6 Suits) 2020-06-23 — 01:13:19 UTC annieboboh, penguin69
216171 2 0 Rainbow (6 Suits) 2020-06-23 — 18:06:46 UTC opurtell, rholstine
234903 2 0 Rainbow (6 Suits) 2020-07-10 — 05:07:39 UTC aridante, nostalgiccat
250936 2 0 Rainbow (6 Suits) 2020-07-25 — 19:45:55 UTC antizoubilamaka, link825
287342 2 0 Rainbow (6 Suits) 2020-09-02 — 18:56:47 UTC ihavenoidea, VerySloppyTwo
339562 2 0 Rainbow (6 Suits) 2020-11-09 — 23:13:02 UTC adikkk, oldgreg
364836 2 0 Rainbow (6 Suits) 2020-12-08 — 21:13:09 UTC choonabi, Stavfx
375723 2 0 Rainbow (6 Suits) 2020-12-19 — 11:06:08 UTC rea, rossopesce
406827 2 0 Rainbow (6 Suits) 2021-01-18 — 00:55:49 UTC Etherealz, missyalyssi
494424 2 0 Rainbow (6 Suits) 2021-04-09 — 00:49:30 UTC hambrenson, veganpecan
538471 2 0 Rainbow (6 Suits) 2021-05-23 — 17:28:29 UTC Bjuuti, EetuA
548639 2 0 Rainbow (6 Suits) 2021-06-03 — 17:53:22 UTC enkimdu, Ritz1974
587429 2 0 Rainbow (6 Suits) 2021-07-12 — 15:39:31 UTC Fuuut, Stoeptegel
589290 2 0 Rainbow (6 Suits) 2021-07-14 — 20:14:33 UTC paari, thepeperon
607958 2 0 Rainbow (6 Suits) 2021-08-15 — 14:26:01 UTC Kaori-M, smallman
613458 2 0 Rainbow (6 Suits) 2021-08-23 — 20:33:38 UTC Charles123123, wardsux1
620023 2 0 Rainbow (6 Suits) 2021-09-02 — 18:31:01 UTC asdasdasda, JTJTJTJTJT
639578 2 0 Rainbow (6 Suits) 2021-10-07 — 19:41:11 UTC potato_laptop, wardsux2
642336 2 0 Rainbow (6 Suits) 2021-10-12 — 21:18:44 UTC HiIIIHIII, sgafsa
649188 2 0 Rainbow (6 Suits) 2021-10-25 — 17:54:08 UTC sadasdasdasdas, xzgsd